2024/03/16 00:00:00, 0.5, 8.7
2024/03/16 00:10:00, 0.4, 8.2
2024/03/16 00:20:00, 0.5, 8.6
2024/03/16 00:30:00, 0.5, 8.6
2024/03/16 00:40:00, 0.5, 8.9
2024/03/16 00:50:00, 0.4, 8.5
2024/03/16 01:00:00, 0.4, 8.5
2024/03/16 01:10:00, 0.5, 8.9
2024/03/16 01:20:00, 0.4, 8.4
2024/03/16 01:30:00, 0.5, 9.0
2024/03/16 01:40:00, 0.5, 8.6
2024/03/16 01:50:00, 0.5, 8.6
2024/03/16 02:00:00, 0.5, 8.9
2024/03/16 02:10:00, 0.5, 8.0
2024/03/16 02:20:00, 0.4, 8.3
2024/03/16 02:30:00, 0.4, 8.1
2024/03/16 02:40:00, 0.4, 8.5
2024/03/16 02:50:00, 0.4, 8.5
2024/03/16 03:00:00, 0.4, 8.7
2024/03/16 03:10:00, 0.4, 8.5
2024/03/16 03:20:00, 0.4, 8.8
2024/03/16 03:30:00, 0.5, 8.4
2024/03/16 03:40:00, 0.6, 7.8
2024/03/16 03:50:00, 0.6, 7.8
2024/03/16 04:00:00, 0.6, 8.0
2024/03/16 04:10:00, 0.6, 7.6
2024/03/16 04:20:00, 0.6, 8.0
2024/03/16 04:30:00, 0.6, 8.0
2024/03/16 04:40:00, 0.5, 7.6
2024/03/16 04:50:00, 0.5, 8.5
2024/03/16 05:00:00, 0.5, 7.5
2024/03/16 05:10:00, 0.5, 8.1
2024/03/16 05:20:00, 0.5, 8.0
2024/03/16 05:30:00, 0.5, 6.8
2024/03/16 05:40:00, 0.4, 7.7
2024/03/16 05:50:00, 0.5, 6.9
2024/03/16 06:00:00, 0.6, 7.3
2024/03/16 06:10:00, 0.6, 7.8
2024/03/16 06:20:00, 0.5, 7.3
2024/03/16 06:30:00, 0.5, 6.8
2024/03/16 06:40:00, 0.6, 6.9
2024/03/16 06:50:00, 0.5, 7.2
2024/03/16 07:00:00, 0.6, 7.2
2024/03/16 07:10:00, 0.7, 7.5
2024/03/16 07:20:00, 0.6, 8.0
2024/03/16 07:30:00, 0.4, 7.4
2024/03/16 07:40:00, 0.5, 7.8
2024/03/16 07:50:00, 0.5, 7.8
2024/03/16 08:00:00, 0.5, 8.1
2024/03/16 08:10:00, 0.5, 8.5
2024/03/16 08:20:00, 0.5,10.6
2024/03/16 08:30:00, 0.3,11.2
2024/03/16 08:40:00, 0.5,12.6
2024/03/16 08:50:00, 0.5,14.1
2024/03/16 09:00:00, 0.4,13.9
2024/03/16 09:10:00, 0.3,12.4
2024/03/16 09:20:00, 0.4,13.2
2024/03/16 09:30:00, 0.4,14.0
2024/03/16 09:40:00, 0.4,14.3
2024/03/16 09:50:00, 0.4,13.5
2024/03/16 10:00:00, 0.2,13.9
2024/03/16 10:10:00, 0.2,14.2
2024/03/16 10:20:00, 0.2,14.6
2024/03/16 10:30:00, 0.2,14.0
2024/03/16 10:40:00, 0.2,14.4
2024/03/16 10:50:00, 0.3,14.7
2024/03/16 11:00:00, 0.2,15.1
2024/03/16 11:10:00, 0.2,16.0
2024/03/16 11:20:00, 0.2,15.7
2024/03/16 11:30:00, 0.2,15.4
2024/03/16 11:40:00, 0.2,15.9
2024/03/16 11:50:00, 0.2,15.9
2024/03/16 12:00:00, 0.2,15.9
2024/03/16 12:10:00, 0.2,16.4
2024/03/16 12:20:00, 0.1,16.4
2024/03/16 12:30:00, 0.1,17.0
2024/03/16 12:40:00, 0.0,16.2
2024/03/16 12:50:00, 0.0,16.7
2024/03/16 13:00:00, 0.0,16.9
2024/03/16 13:10:00, 0.0,16.7
2024/03/16 13:20:00, 0.0,16.9
2024/03/16 13:30:00, 0.0,17.4
2024/03/16 13:40:00, 0.0,17.8
2024/03/16 13:50:00, 0.0,17.6
2024/03/16 14:00:00, 0.0,18.2
2024/03/16 14:10:00, 0.0,17.9
2024/03/16 14:20:00, 0.0,18.4
2024/03/16 14:30:00, 0.1,18.4
2024/03/16 14:40:00, 0.0,22.0
2024/03/16 14:50:00, 0.0,20.1
2024/03/16 15:00:00, 0.0,19.4
2024/03/16 15:10:00, 0.0,19.3
2024/03/16 15:20:00, 0.1,19.5
2024/03/16 15:30:00, 0.1,19.1
2024/03/16 15:40:00, 0.1,19.1
2024/03/16 15:50:00, 0.1,18.5
2024/03/16 16:00:00, 0.1,18.4
2024/03/16 16:10:00, 0.2,17.5
2024/03/16 16:20:00, 0.2,17.3
2024/03/16 16:30:00, 0.1,16.9
2024/03/16 16:40:00, 0.2,16.3
2024/03/16 16:50:00, 0.2,16.4
2024/03/16 17:00:00, 0.2,16.0
2024/03/16 17:10:00, 0.4,15.8
2024/03/16 17:20:00, 0.4,14.8
2024/03/16 17:30:00, 0.4,14.2
2024/03/16 17:40:00, 0.3,13.7
2024/03/16 17:50:00, 0.4,12.6
2024/03/16 18:00:00, 0.4,11.4
2024/03/16 18:10:00, 0.5,10.8
2024/03/16 18:20:00, 0.5,10.5
2024/03/16 18:30:00, 0.4,10.4
2024/03/16 18:40:00, 0.5,10.0
2024/03/16 18:50:00, 0.5,10.4
2024/03/16 19:00:00, 0.4,10.6
2024/03/16 19:10:00, 0.4,10.8
2024/03/16 19:20:00, 0.4,11.7
2024/03/16 19:30:00, 0.4,12.5
2024/03/16 19:40:00, 0.4,12.4
2024/03/16 19:50:00, 0.5,12.4
2024/03/16 20:00:00, 0.4,12.7
2024/03/16 20:10:00, 0.4,12.7
2024/03/16 20:20:00, 0.5,12.9
2024/03/16 20:30:00, 0.5,12.9
2024/03/16 20:40:00, 0.5,13.0
2024/03/16 20:50:00, 0.5,12.7
2024/03/16 21:00:00, 0.5,12.9
2024/03/16 21:10:00, 0.5,12.4
2024/03/16 21:20:00, 0.5, 9.3
2024/03/16 21:30:00, 0.5, 8.9
2024/03/16 21:40:00, 0.6, 8.7
2024/03/16 21:50:00, 0.7, 8.7
2024/03/16 22:00:00, 0.7, 9.6
2024/03/16 22:10:00, 0.6,10.0
2024/03/16 22:20:00, 0.6,10.8
2024/03/16 22:30:00, 0.5,10.7
2024/03/16 22:40:00, 0.5,10.5
2024/03/16 22:50:00, 0.5,11.2
2024/03/16 23:00:00, 0.4,11.5
2024/03/16 23:10:00, 0.3,11.1
2024/03/16 23:20:00, 0.4,10.5
2024/03/16 23:30:00, 0.4,10.8
2024/03/16 23:40:00, 0.4,11.1
2024/03/16 23:50:00, 0.4,11.1
